Wind_Speed
26 25 24 24 24 24 23 21 22 22 21 22 23 25 25 24 23 22 20 20 18 17 17 16 13 11 10 9 9 10 10 11 14 14 16 20 22 20 11 10 15 17 13 12 11 8 6 5 7 5 3 1 2 2 2 1 2 1 2 2 3 4 4 5 5 4 2 2 4 5 3 5 3 2 1 2 5 3 4 5 3 4 6 2 3 13 27 28
26 26 26 25 24 24 24 23 22 22 22 22 22 24 26 26 24 23 21 20 20 19 17 16 15 14 13 11 9 8 9 12 15 17 26 28 22 21 21 16 13 15 15 15 16 11 6 5 6 4 3 2 2 2 2 1 2 3 3 2 5 5 4 4 4 2 1 3 5 6 4 3 4 5 3 2 2 3 5 3 4 4 5 5 9 21 28 29
26 26 26 26 25 25 25 24 23 23 23 23 22 23 26 27 26 24 23 21 21 20 19 17 16 15 14 12 8 6 8 10 11 18 31 34 28 25 24 22 17 12 13 14 15 13 8 7 7 6 3 2 2 2 2 2 2 3 3 3 6 5 3 4 4 2 1 4 6 7 4 3 4 4 3 4 5 4 5 3 1 1 2 4 8 17 24 26
26 26 27 27 26 26 26 25 25 25 24 23 23 22 24 27 27 25 24 23 22 20 20 18 17 15 14 13 8 7 6 6 7 12 22 25 28 32 30 26 21 16 13 13 14 10 7 6 5 4 3 3 2 1 3 3 2 2 4 5 6 4 3 6 6 5 3 3 3 5 0 2 4 1 2 6 7 3 5 7 8 8 9 9 8 13 20 22
26 26 27 27 27 27 26 25 25 25 25 24 23 23 23 24 27 27 24 24 23 21 21 19 18 16 15 13 9 8 4 3 5 2 8 11 19 28 33 30 25 21 15 13 14 9 4 4 3 3 2 3 2 2 3 5 4 2 4 7 7 4 4 6 5 4 3 1 3 4 1 1 2 1 3 8 7 5 6 8 11 10 13 14 12 14 16 17
27 26 26 27 27 27 26 26 27 25 25 25 24 24 24 23 25 28 26 24 24 22 22 21 19 17 16 13 10 10 6 2 1 7 12 3 11 20 29 32 28 24 18 16 14 8 5 3 3 3 2 3 5 4 4 5 4 3 4 4 7 4 4 4 2 4 5 4 5 3 2 1 1 4 4 7 6 7 6 8 10 10 15 18 17 15 14 14
28 26 26 27 27 28 27 27 28 27 25 25 25 25 25 23 24 27 27 25 24 24 23 21 20 18 16 13 11 10 7 7 5 5 14 16 2 13 23 29 29 26 22 19 14 8 6 5 6 5 5 5 6 6 5 4 2 4 4 4 5 3 4 2 2 5 5 4 7 3 2 1 5 4 1 4 8 7 5 3 5 10 15 17 15 14 14 16
28 27 27 27 27 28 28 28 28 28 26 25 26 25 24 24 24 27 28 27 24 24 23 22 21 18 17 14 10 8 8 17 16 8 5 14 10 6 18 25 29 27 24 23 18 10 7 8 9 5 6 6 6 7 5 3 2 5 6 4 4 3 4 2 1 4 5 4 6 4 4 6 8 4 1 6 9 7 4 2 5 10 13 13 14 14 14 14
28 28 28 28 27 27 28 30 29 28 27 25 25 25 25 24 25 26 28 30 26 25 24 23 22 19 19 13 6 8 11 22 28 16 8 6 9 5 14 24 27 27 24 25 21 15 9 8 8 4 5 7 6 8 7 6 6 6 8 6 4 5 5 3 3 4 4 3 3 5 7 9 6 3 2 7 9 6 2 4 6 10 11 11 12 14 14 13
27 27 27 28 27 27 28 30 30 29 28 27 26 26 26 25 25 25 27 30 28 27 25 24 24 20 21 14 7 9 7 12 27 27 22 21 16 11 12 24 26 26 23 21 20 16 9 6 7 2 1 3 4 5 6 8 4 5 8 6 6 7 6 3 3 4 3 4 4 4 8 10 5 3 4 7 7 5 2 4 6 9 11 12 11 12 14 14
28 26 26 27 27 27 27 29 31 30 29 28 26 26 27 26 25 24 26 29 30 28 26 26 25 22 22 14 9 10 3 3 12 18 20 22 23 16 13 24 26 26 21 17 19 19 13 8 6 4 2 3 4 1 3 6 2 4 6 3 5 7 7 5 5 6 3 4 5 5 7 9 2 3 7 7 5 4 3 4 6 8 9 11 11 11 11 13
28 27 26 26 27 27 27 28 30 31 30 28 28 26 26 26 25 25 26 28 31 29 27 27 26 25 21 11 13 15 7 5 4 3 5 8 14 16 14 21 26 28 23 15 17 20 18 12 7 7 3 2 4 1 4 4 4 3 5 3 5 5 7 10 7 5 5 4 4 3 5 9 3 6 9 7 5 4 4 6 5 7 8 8 10 9 9 13
26 27 26 26 26 27 27 27 28 30 30 29 29 27 27 27 26 26 26 28 31 30 28 28 27 27 18 7 16 23 15 11 6 2 3 0 4 14 15 17 24 29 27 20 16 18 19 14 10 8 2 1 4 2 2 2 5 3 3 2 2 3 7 9 5 5 5 5 4 4 5 9 6 8 10 6 6 6 5 7 7 7 7 7 8 8 9 13
25 27 26 25 25 26 26 26 27 29 30 29 29 28 28 28 27 27 27 28 31 32 29 27 28 25 15 9 12 20 24 19 12 8 8 5 1 7 15 17 22 27 27 24 17 16 18 12 8 5 1 1 3 1 4 3 2 4 2 1 3 4 7 5 5 7 6 6 7 6 7 8 6 8 10 7 6 7 6 9 9 8 7 6 7 8 9 10
24 26 26 25 26 26 26 26 26 28 30 30 29 29 28 28 28 27 26 28 30 32 30 26 26 17 7 11 11 15 21 20 24 20 12 11 7 2 11 18 21 23 23 22 18 15 15 10 7 3 0 1 1 1 4 2 1 3 3 3 4 6 6 3 5 9 8 6 7 9 6 6 7 9 10 8 7 8 9 10 10 10 9 7 7 8 8 9
23 26 28 27 26 26 26 26 26 27 29 30 29 28 28 28 28 27 26 28 29 30 27 21 25 18 4 6 8 11 15 16 27 28 18 18 14 3 6 14 17 17 17 14 14 12 11 9 4 1 2 2 2 3 4 2 1 3 6 7 7 9 7 3 5 7 9 4 5 9 7 3 5 8 9 8 8 9 9 11 11 10 9 8 6 7 8 8
23 25 28 27 26 25 26 27 26 26 28 29 29 27 27 27 27 27 25 26 28 31 26 17 22 19 6 5 5 7 16 18 21 27 27 24 19 9 5 7 10 13 11 6 8 10 9 7 3 1 2 2 4 5 4 5 6 5 7 6 7 9 8 5 4 4 7 6 5 8 8 6 5 7 8 8 8 8 8 10 10 9 8 7 6 7 7 8
24 25 27 27 26 25 26 27 27 27 26 28 29 27 26 26 26 26 24 25 24 26 23 14 17 13 7 12 10 4 13 21 19 24 28 23 18 13 6 3 5 9 7 2 3 7 6 4 4 3 3 3 5 8 9 11 13 11 9 7 6 6 8 9 5 3 8 8 8 8 10 10 8 9 10 8 7 8 9 10 9 8 8 8 7 7 7 9
24 25 27 27 27 26 26 27 28 27 26 27 27 25 23 21 20 21 23 21 14 11 10 10 14 10 4 10 13 8 10 20 20 21 23 17 13 12 6 2 4 8 6 2 5 7 5 3 4 5 5 8 11 13 17 15 12 11 10 10 8 5 6 7 5 5 8 7 9 12 13 12 10 11 11 9 7 7 8 8 7 7 7 7 6 6 8 9
25 26 26 26 27 25 26 27 28 28 26 25 24 17 13 11 9 11 14 14 11 10 6 13 18 10 2 2 8 13 10 17 17 16 22 18 14 12 4 1 2 5 5 5 6 5 6 5 5 9 11 15 17 17 18 13 6 7 9 9 7 6 6 5 6 6 5 4 7 11 13 13 10 10 11 11 10 9 9 8 7 8 7 7 7 7 9 9
25 26 25 27 27 26 27 27 27 28 26 26 24 12 4 9 8 3 7 9 15 16 6 13 22 13 4 3 6 15 8 10 13 15 25 22 17 13 4 3 5 6 9 8 5 3 6 8 10 15 17 17 17 15 14 11 9 9 7 6 6 8 8 6 7 7 4 3 8 9 10 14 11 9 10 10 10 10 10 10 10 11 9 7 8 9 9 8
25 26 26 27 27 27 27 27 27 28 26 27 25 12 6 14 12 1 4 6 13 17 7 10 18 14 10 3 5 16 6 4 9 11 21 20 14 12 7 7 7 8 11 8 4 3 5 8 14 19 16 13 13 13 13 13 13 11 5 5 7 7 5 4 5 7 5 4 8 9 10 14 11 9 11 11 11 10 9 11 10 10 10 8 8 8 9 8
25 26 27 27 28 28 27 27 28 26 26 26 23 17 15 21 17 5 3 2 6 14 9 9 15 14 15 6 3 13 6 5 9 8 17 17 9 9 8 9 10 9 10 10 8 7 6 8 16 18 13 12 12 11 13 12 11 10 7 7 8 6 6 5 5 6 6 5 6 5 7 11 8 7 9 10 12 8 7 10 10 9 10 10 9 8 8 9
25 26 27 28 28 27 27 28 26 25 28 27 23 26 24 20 19 11 2 0 4 9 12 16 15 12 17 9 3 9 5 4 7 10 19 18 9 8 8 10 13 10 9 13 15 12 10 8 9 12 11 13 13 10 12 11 9 11 11 10 10 8 8 7 5 5 5 7 6 2 5 8 7 8 8 7 8 8 7 8 9 9 10 9 9 8 8 9
25 26 26 27 27 27 27 23 23 26 27 25 25 30 26 19 20 13 3 1 3 2 10 15 9 9 19 11 3 5 3 3 5 11 18 19 14 9 6 7 9 12 13 16 15 12 14 8 6 11 12 12 13 12 13 12 9 11 12 13 13 8 7 6 5 6 4 7 7 5 6 8 6 10 10 7 7 10 10 9 11 11 10 9 9 9 10 10
24 25 25 27 27 27 22 14 18 26 20 19 26 28 26 22 19 13 4 2 4 3 8 11 6 11 20 12 4 4 3 6 6 11 16 19 17 10 7 5 2 10 15 13 8 5 10 9 7 12 12 12 13 12 14 14 9 9 10 14 14 7 5 6 6 6 6 6 5 6 7 8 4 7 10 9 10 13 13 13 15 12 10 11 10 10 10 10
24 24 25 26 26 24 16 5 12 20 13 16 25 25 27 26 19 14 5 4 5 5 8 9 6 14 19 14 13 8 5 6 6 9 14 18 16 7 8 9 4 8 9 6 5 3 9 13 10 11 12 12 12 9 12 15 12 9 8 12 12 10 9 8 7 5 3 2 3 4 6 7 8 6 7 8 10 12 14 15 16 12 11 12 11 11 12 12
24 24 24 26 26 27 21 9 12 17 14 13 20 24 27 27 20 13 5 6 4 5 7 7 6 13 14 12 16 8 3 8 9 8 13 20 16 5 7 11 10 10 7 7 8 4 6 14 14 13 11 9 10 8 9 13 11 6 5 9 11 14 13 9 6 5 1 1 3 4 5 6 10 6 5 7 9 11 12 15 16 13 11 12 12 12 13 14
23 24 25 25 25 27 27 19 15 17 19 16 19 27 30 26 16 6 4 6 1 3 5 9 8 9 11 12 15 9 3 4 6 5 9 15 12 3 4 10 10 8 6 7 9 4 2 7 11 11 9 8 9 8 9 12 9 2 6 7 5 8 10 8 6 4 2 3 8 9 6 6 11 7 5 6 10 12 12 12 14 13 10 11 12 13 13 13
23 24 25 24 23 24 26 22 17 18 21 21 24 30 29 20 9 3 8 5 2 1 3 8 11 12 15 15 13 12 6 2 3 6 7 8 7 1 1 2 5 5 3 5 8 5 1 2 5 7 8 9 8 5 7 12 9 2 5 2 3 0 4 4 4 4 3 6 10 12 11 8 10 9 7 8 10 11 10 10 12 12 11 11 12 11 12 11
22 23 25 25 25 24 20 17 21 21 22 28 32 29 19 8 4 7 8 1 2 4 5 9 13 15 19 19 13 13 11 3 4 9 8 7 7 4 2 3 4 4 4 4 6 7 2 1 2 2 3 5 7 4 1 5 9 4 4 2 1 1 1 1 1 2 4 5 8 13 13 10 11 12 7 8 11 12 11 12 13 13 13 12 11 11 11 12
22 23 25 26 26 26 20 17 25 27 26 35 32 18 8 4 6 7 4 4 1 5 8 11 14 17 20 20 15 17 14 6 8 13 10 10 11 10 9 9 8 6 7 7 7 8 6 3 2 3 3 4 8 7 1 2 4 5 4 4 4 3 2 3 3 3 5 6 6 11 13 11 12 14 9 8 11 11 11 12 13 14 14 12 12 13 12 12
22 23 24 26 26 29 26 21 27 29 29 33 22 8 6 7 7 9 6 3 3 5 9 11 14 18 22 19 14 17 13 6 10 14 12 12 12 12 10 8 9 8 7 9 8 6 4 4 3 2 2 4 9 9 6 3 6 10 9 8 7 5 5 7 6 5 7 8 7 9 10 7 7 11 13 15 15 10 9 10 10 11 12 12 13 13 12 12
21 22 24 26 27 30 27 22 27 32 32 26 11 5 9 8 5 11 12 5 3 4 10 14 14 15 18 17 14 16 11 4 9 13 12 11 9 11 11 8 11 7 4 8 7 7 9 7 7 10 6 7 11 12 10 7 7 10 8 8 9 7 6 6 6 7 8 6 5 5 6 6 5 7 9 13 15 13 13 12 9 9 11 12 12 11 11 12
20 22 23 24 26 28 27 24 29 36 30 17 6 5 9 8 4 8 11 6 2 4 9 15 16 14 12 10 12 18 13 6 10 11 9 11 9 11 12 10 13 10 6 7 5 6 12 8 7 13 9 10 13 10 6 6 4 5 3 6 10 8 7 6 3 6 5 5 5 3 4 4 4 7 6 6 10 13 16 14 12 16 16 13 12 12 13 12
15 17 19 21 23 27 29 26 31 37 25 10 7 8 9 8 4 4 7 6 4 6 11 13 13 13 11 6 8 15 9 3 10 9 6 11 11 11 12 9 12 13 9 9 5 5 9 8 4 7 7 11 14 10 8 7 5 2 4 8 6 2 4 6 5 1 2 6 6 5 7 5 3 9 7 6 8 9 13 13 13 16 16 13 13 13 13 12
10 11 13 16 21 27 30 28 33 34 18 7 10 10 7 6 4 3 4 6 7 10 11 10 8 9 11 7 8 15 9 4 8 8 5 9 9 10 13 9 11 15 12 9 4 3 7 7 2 6 9 11 8 8 8 8 6 4 5 8 3 3 1 2 4 3 4 7 5 8 13 9 6 7 6 10 10 8 12 14 12 12 12 12 13 12 11 11
14 10 7 12 20 26 29 31 33 25 9 6 12 11 6 5 4 3 3 6 11 12 11 7 6 9 11 9 10 16 14 8 9 8 6 7 5 10 15 10 11 17 15 7 3 1 5 4 3 7 12 6 4 7 6 7 5 4 3 3 2 2 4 3 4 5 7 8 5 8 13 9 9 7 5 10 12 10 13 14 11 11 10 10 11 10 11 12
14 6 2 11 22 26 30 32 24 12 5 7 12 11 5 3 3 3 5 7 10 11 11 8 6 8 10 12 13 16 17 13 11 9 8 7 4 10 17 11 9 17 16 8 4 3 5 4 5 4 6 6 5 5 7 7 3 1 1 1 1 2 6 5 4 3 4 8 7 8 9 6 7 9 9 13 13 11 12 11 10 11 9 8 9 10 11 11
8 3 2 13 24 27 31 26 12 5 7 8 9 7 4 1 4 6 7 7 8 7 9 10 9 10 11 12 12 13 15 14 13 10 9 10 6 6 15 14 10 16 16 10 6 1 3 4 5 3 1 7 6 7 12 14 8 3 5 6 4 3 2 2 2 2 3 5 6 7 7 5 4 8 13 19 14 9 10 9 9 10 9 10 9 9 9 9
3 1 2 15 27 29 26 15 4 4 7 7 6 4 3 2 4 8 9 5 3 2 4 7 9 10 12 12 10 10 11 11 12 10 7 10 9 6 13 16 12 13 13 9 7 3 2 5 4 1 2 6 7 6 8 11 11 9 8 9 8 7 4 3 3 2 2 3 4 4 4 4 3 5 10 15 12 7 8 9 9 10 11 10 8 8 9 9
3 1 4 20 31 28 18 6 3 5 4 7 5 2 4 3 3 9 9 4 2 1 1 2 3 6 9 11 11 11 11 10 12 12 8 12 15 10 8 11 12 13 12 9 8 5 3 3 3 2 3 5 6 3 3 1 4 6 7 8 8 8 7 7 7 4 3 4 4 3 3 4 5 6 7 10 9 5 7 8 7 8 9 8 8 8 9 10
3 1 6 26 38 27 12 5 5 4 3 3 3 2 5 4 4 7 7 4 3 2 2 2 2 5 6 6 9 12 11 9 11 14 11 11 12 8 7 11 14 14 12 8 7 5 2 3 3 3 1 3 3 2 5 5 4 2 6 8 8 9 11 11 9 7 7 6 5 4 5 4 4 5 6 8 7 5 6 6 5 5 7 8 10 10 9 10
2 0 3 24 39 26 8 5 8 6 3 1 2 4 3 1 6 9 7 5 3 3 6 4 4 6 4 4 7 11 12 8 9 12 8 6 6 5 10 15 16 14 11 9 10 8 6 4 5 4 1 1 3 3 4 3 1 3 6 9 11 13 13 11 7 7 8 9 9 8 6 5 3 5 6 8 10 7 5 4 4 5 7 9 11 11 9 9
1 1 2 11 25 17 4 3 6 6 5 3 4 7 6 2 4 8 7 6 3 3 5 5 5 6 5 6 6 7 10 6 5 9 6 3 4 4 9 16 17 14 11 11 11 9 6 5 6 8 6 6 8 7 6 5 3 2 3 8 13 14 15 11 6 7 8 8 10 10 8 5 4 8 10 10 13 11 5 3 5 6 7 9 9 10 10 9
1 2 1 2 7 6 2 1 2 5 6 6 3 6 10 8 4 4 4 4 3 3 2 2 7 8 5 8 7 6 10 3 2 7 8 6 5 5 9 15 16 14 11 13 13 8 4 5 8 11 12 11 12 10 5 3 4 5 7 11 13 12 12 9 6 8 7 7 10 11 9 7 7 11 15 13 13 13 9 5 6 6 7 7 7 8 9 9
1 1 3 2 1 3 2 1 2 4 6 7 4 4 10 10 6 4 3 2 3 3 2 3 5 10 10 13 9 8 13 6 1 6 10 8 4 4 8 11 12 14 13 13 13 8 3 6 11 15 16 14 11 7 2 5 4 7 9 11 11 10 10 9 10 10 8 7 11 10 7 9 10 13 17 16 14 13 12 10 8 6 6 6 6 7 9 10
1 0 2 1 1 4 5 4 7 7 7 8 5 4 9 10 9 7 5 3 2 2 2 1 5 12 14 17 12 8 12 8 3 6 9 8 6 5 6 5 6 9 10 9 8 6 4 8 11 12 15 14 11 7 2 3 3 5 6 8 9 10 12 14 14 13 10 10 10 8 6 9 9 10 15 17 13 12 13 10 6 5 5 6 6 7 9 10
1 0 1 1 1 3 3 4 7 7 8 9 6 6 9 11 12 9 3 4 3 4 4 4 9 14 14 15 12 8 12 11 8 8 8 7 8 7 6 3 1 3 6 7 4 2 4 6 4 6 11 12 11 9 5 4 4 3 5 6 6 8 10 12 13 14 14 13 12 11 13 12 8 7 15 17 9 6 8 7 5 6 7 7 7 8 9 10
0 1 1 1 1 1 1 5 7 6 6 8 6 6 8 11 14 8 2 6 8 5 4 6 10 12 13 14 12 10 15 16 11 10 9 8 7 6 5 5 3 3 4 5 3 1 3 4 3 5 6 9 9 8 6 5 6 5 5 6 6 7 8 9 10 10 11 11 12 13 15 14 10 10 17 20 12 8 11 13 12 11 9 8 8 9 10 11
2 3 1 1 0 1 2 4 6 6 6 7 7 6 8 12 15 12 7 8 9 7 6 8 9 8 8 12 14 13 14 12 9 11 12 12 10 6 4 5 7 8 4 4 4 2 3 3 2 5 4 7 6 7 5 4 4 3 6 8 10 11 10 10 9 8 9 8 9 10 10 10 11 11 15 20 19 17 19 18 16 15 13 12 12 13 14 15
3 4 2 1 1 2 3 4 6 7 6 7 9 8 9 12 13 12 8 6 6 6 5 6 8 7 7 13 16 12 9 7 7 8 7 7 7 5 4 7 10 11 7 5 3 2 5 4 2 4 6 6 2 6 6 5 3 4 9 12 16 15 12 10 8 8 10 9 8 9 10 11 12 11 13 19 22 20 19 16 15 16 16 15 15 17 17 17
Wind_Direction
267 266 263 262 261 261 260 259 260 261 259 256 251 242 236 237 237 235 236 237 238 239 241 242 244 249 255 265 261 254 259 264 268 259 245 243 239 235 231 221 219 223 238 258 265 275 258 222 228 218 170 159 163 204 231 185 132 85 116 173 228 197 203 197 185 189 153 290 294 288 244 152 182 214 165 57 55 80 74 36 3 15 24 68 149 149 153 160
266 265 263 262 260 259 259 258 257 258 258 256 253 247 239 235 235 234 232 233 235 235 236 237 239 242 250 260 259 254 259 266 272 263 249 246 246 241 232 224 220 222 234 254 257 258 250 225 222 180 130 155 190 191 201 225 153 149 136 178 232 199 205 215 209 207 59 316 286 280 267 196 204 178 158 137 157 129 99 12 359 37 30 62 122 141 151 159
264 263 263 261 259 258 257 258 256 254 256 255 253 250 244 236 231 232 231 229 230 230 231 232 234 237 244 248 251 253 257 274 277 264 259 252 244 240 233 225 219 219 232 247 251 253 257 246 211 159 132 186 215 178 163 235 194 178 142 192 240 202 215 267 269 261 274 290 281 279 255 213 234 172 169 160 163 170 157 189 121 161 191 140 143 147 153 160
263 261 261 260 259 257 255 256 256 255 254 253 253 250 248 242 233 230 231 230 227 226 226 228 230 230 238 239 237 243 249 291 272 259 274 265 245 238 231 222 212 215 230 238 244 252 253 231 191 128 135 195 256 135 165 225 190 188 160 198 239 183 211 269 266 277 288 258 269 292 263 200 258 182 196 148 136 231 227 205 191 193 182 166 170 162 160 164
261 259 259 258 258 256 254 253 253 254 253 252 251 249 248 246 239 230 228 230 227 224 223 224 227 224 231 231 226 233 222 304 260 266 321 269 237 232 227 220 207 210 221 226 231 233 225 198 138 84 112 176 221 138 208 226 156 187 201 210 238 182 210 254 250 285 319 297 338 342 11 194 253 311 210 156 150 230 229 210 203 186 170 170 172 168 169 170
260 258 256 256 256 256 254 252 251 252 251 250 249 249 248 247 242 231 224 228 227 225 222 221 223 220 223 222 218 222 199 234 220 69 39 30 224 226 222 217 205 205 212 216 220 209 200 195 167 158 141 168 194 189 223 223 154 194 231 231 246 207 214 265 311 328 0 345 319 309 272 97 129 286 241 175 192 223 216 205 197 181 168 167 164 165 174 179
261 258 254 254 254 254 253 252 251 249 250 250 248 249 248 245 243 235 225 224 226 224 222 220 220 215 216 216 217 220 214 246 232 98 49 46 7 232 221 213 202 202 206 207 207 192 184 191 199 175 156 181 194 203 215 216 159 173 213 249 253 213 206 246 9 325 345 306 272 267 272 205 191 244 240 203 243 244 251 242 162 161 159 157 161 172 183 185
263 259 254 253 251 252 252 251 249 248 248 249 248 247 247 245 242 237 228 222 223 223 220 217 217 211 209 210 211 222 227 234 223 184 47 32 25 247 218 209 201 201 202 203 198 184 181 190 205 172 167 205 189 191 190 187 204 182 199 228 251 235 206 224 334 296 306 278 277 306 283 242 204 192 162 233 258 262 263 358 101 139 149 159 173 181 186 190
262 261 257 254 251 250 249 249 248 246 245 245 247 245 244 245 242 240 230 221 219 220 218 214 214 208 206 204 188 228 237 230 225 216 237 299 355 333 216 204 201 202 201 205 199 185 184 192 204 182 183 212 190 188 176 180 219 201 195 201 224 245 236 254 265 251 278 268 296 318 283 262 226 174 261 242 249 257 186 100 117 142 156 176 184 186 189 191
261 261 259 255 251 248 247 247 247 244 244 244 244 244 242 243 243 241 231 221 217 217 217 213 212 205 203 197 178 228 244 233 235 237 247 258 282 302 220 201 202 203 202 205 201 190 184 191 195 141 94 203 194 194 179 187 206 175 186 203 221 249 264 240 229 236 273 271 248 255 263 266 242 186 256 255 246 248 145 117 139 154 172 186 191 194 194 195
260 258 259 257 251 247 245 245 245 243 243 242 243 243 240 241 241 240 233 225 218 215 215 212 209 205 202 197 199 223 186 165 238 244 257 263 262 267 223 205 203 203 206 205 207 202 192 200 171 92 355 228 186 224 233 204 135 124 156 191 245 268 278 241 246 250 238 273 237 202 252 271 243 189 235 233 223 205 188 196 170 174 191 192 196 198 198 205
261 257 256 257 252 246 244 243 243 242 242 242 242 241 239 239 239 238 235 228 220 214 213 210 206 205 203 204 220 215 176 170 210 203 258 270 247 245 229 210 204 203 207 203 213 211 202 208 164 144 238 218 157 206 255 206 119 117 130 162 262 304 278 247 250 234 185 238 236 153 273 270 217 216 233 216 202 186 203 232 209 202 206 198 202 199 202 211
261 260 255 256 255 248 244 243 242 241 240 240 241 241 240 238 237 236 233 229 221 212 211 210 205 203 200 220 229 218 206 198 192 164 211 269 226 233 228 217 212 208 208 208 215 214 212 214 177 171 227 149 183 194 175 131 117 136 103 155 247 315 266 240 218 202 197 216 170 126 261 256 233 236 239 225 207 195 212 243 238 222 213 206 208 203 210 212
260 261 258 256 257 252 246 243 242 240 238 239 240 241 240 239 238 236 230 225 219 211 211 211 204 198 199 230 235 224 222 217 228 240 217 228 330 216 217 218 218 211 207 209 209 213 219 213 166 167 295 169 241 336 104 73 102 142 97 216 196 230 237 218 187 180 208 229 163 159 246 250 254 255 248 243 213 201 220 243 245 238 225 212 209 208 217 214
256 259 258 255 255 254 250 245 243 240 238 237 238 240 240 240 239 237 230 223 218 210 209 210 202 191 206 242 241 229 223 223 237 235 215 240 267 201 208 209 211 209 206 208 204 209 208 184 146 157 218 111 319 7 125 90 16 144 180 217 201 224 222 216 221 180 192 239 166 174 240 251 246 250 245 237 216 209 222 236 241 243 237 224 213 209 219 222
252 256 257 253 251 254 252 247 244 241 239 236 236 239 240 240 239 238 233 224 219 210 206 207 197 191 220 239 223 219 210 210 226 222 213 236 244 250 222 203 200 199 198 200 195 189 176 162 150 143 126 105 173 173 130 135 230 205 207 207 199 211 211 220 262 205 184 205 180 201 231 229 233 243 240 231 217 212 221 237 242 246 248 238 224 216 217 225
253 253 256 254 249 250 252 250 246 241 239 235 235 237 238 241 239 238 237 228 221 209 205 203 185 188 245 242 200 207 206 204 210 210 215 231 234 232 232 196 183 179 173 160 170 168 156 166 178 127 151 161 181 173 167 188 194 210 214 220 216 205 201 201 263 252 178 184 211 221 233 224 239 256 249 241 224 212 215 233 242 245 252 244 232 228 223 222
253 252 254 255 250 248 251 252 247 240 238 236 233 235 237 240 238 238 237 228 218 203 202 201 174 176 249 239 221 203 198 197 193 200 211 226 226 216 214 196 150 151 152 100 172 176 163 177 180 173 178 177 183 182 197 205 196 196 196 213 227 207 207 203 223 231 172 191 218 220 239 234 235 252 250 245 223 208 216 224 233 239 247 249 238 233 232 227
252 251 251 254 252 248 249 252 248 239 236 236 232 232 239 241 238 236 227 216 209 193 190 182 172 177 239 235 219 209 199 192 188 195 201 205 199 188 192 207 139 140 154 180 191 187 173 157 177 192 191 189 194 196 206 212 202 195 197 210 214 206 227 209 218 225 169 180 216 217 237 234 222 235 244 249 229 212 225 228 235 239 241 250 246 239 240 235
252 251 251 253 252 250 248 248 246 237 231 230 223 220 233 229 220 225 213 204 211 215 182 166 181 185 75 11 193 182 182 181 179 188 195 189 161 153 155 155 138 150 169 190 184 177 181 185 198 203 205 203 201 203 213 222 214 202 205 217 217 212 238 213 218 242 170 161 228 217 235 241 225 225 234 245 242 232 238 237 242 244 238 241 243 243 241 235
252 252 253 253 252 251 247 245 243 234 227 223 214 203 211 202 194 190 185 202 219 222 219 179 186 191 168 33 146 156 144 170 175 186 192 185 159 156 171 174 178 188 190 192 178 158 190 202 211 210 212 211 206 207 216 224 226 224 206 205 223 219 233 219 207 233 197 194 244 229 241 248 233 222 229 239 243 237 230 229 236 241 241 238 237 244 245 245
254 254 254 254 253 251 246 243 239 232 224 218 211 203 218 211 209 203 163 212 224 212 224 193 187 199 214 291 154 162 127 137 178 194 189 178 165 171 178 182 189 194 192 187 174 195 211 213 215 215 216 215 211 206 210 220 226 232 216 203 229 217 225 246 211 217 201 203 248 242 245 254 244 229 228 228 237 235 218 218 222 227 238 239 232 236 244 252
255 255 255 254 252 249 245 240 235 229 219 213 207 206 217 214 216 241 175 214 235 198 192 190 188 201 213 244 208 178 151 140 178 200 184 170 168 179 170 179 193 196 191 185 193 206 210 213 214 215 214 211 215 205 204 218 224 228 220 213 233 207 193 240 225 206 201 206 236 231 239 255 251 238 234 228 235 241 222 220 220 218 224 229 230 230 235 242
256 256 256 253 249 247 243 238 232 225 218 213 212 214 215 211 219 234 186 304 268 195 185 189 187 198 205 208 174 175 174 165 175 189 184 172 161 171 174 181 189 198 196 193 202 213 223 224 205 207 211 206 212 205 202 214 220 224 219 215 231 212 199 226 209 177 204 232 236 236 271 263 232 226 239 234 241 251 237 226 231 233 231 232 239 241 241 242
256 255 254 250 247 244 238 235 226 220 216 213 216 218 212 207 217 216 156 294 272 204 193 188 179 204 203 193 122 144 179 211 196 188 185 179 167 157 176 188 187 198 196 194 202 217 229 225 165 194 210 202 209 209 202 206 216 225 217 215 226 206 190 211 176 150 189 242 228 198 252 266 226 217 226 216 227 243 239 231 231 233 235 235 239 242 242 246
256 254 251 246 244 238 232 231 220 214 212 215 218 214 206 208 213 199 157 280 238 181 183 172 154 188 189 185 151 121 195 218 199 182 180 184 180 162 173 184 196 206 195 191 202 217 227 217 172 193 201 194 209 215 203 200 214 231 210 208 219 199 174 194 174 165 193 236 226 182 221 265 264 225 223 207 211 229 235 239 239 233 233 234 234 236 235 241
258 254 247 244 240 228 221 213 201 201 203 219 214 203 203 204 193 173 169 266 227 166 160 162 164 175 173 174 163 150 198 177 144 182 186 183 184 171 179 178 180 207 189 176 203 195 205 209 199 196 191 191 208 213 198 193 204 230 204 192 204 201 204 205 192 201 211 279 285 197 203 254 269 241 211 193 205 228 235 240 246 238 231 236 237 239 237 237
258 254 245 242 236 222 214 181 164 190 205 207 198 193 197 189 163 146 183 245 207 129 147 166 160 159 156 155 160 172 229 149 145 197 186 177 181 171 187 192 189 191 175 172 200 200 195 205 205 202 197 198 207 205 192 192 208 228 155 165 196 205 210 207 199 225 246 13 260 216 173 236 259 237 169 182 207 228 233 235 245 241 228 233 235 237 239 238
258 253 243 238 235 225 216 198 176 198 205 190 187 189 184 171 148 121 233 234 151 94 157 163 152 145 139 144 167 199 259 138 167 173 150 172 188 178 193 199 186 174 168 188 205 216 211 210 204 200 207 209 208 201 179 188 215 223 128 155 204 208 204 199 199 213 205 216 225 216 185 218 256 244 169 191 215 223 230 231 239 239 224 225 231 233 238 241
256 250 242 234 232 222 210 205 203 202 196 185 178 173 166 161 154 193 226 214 101 162 177 165 171 158 149 153 173 198 204 160 157 135 132 170 190 185 42 151 127 125 168 219 223 219 312 281 198 188 209 208 199 196 174 184 195 101 94 113 4 59 177 184 194 185 198 230 223 213 201 205 251 254 200 201 219 215 221 229 237 239 229 227 230 231 236 239
256 247 237 227 224 212 197 203 204 193 186 179 166 154 147 153 187 210 216 155 74 177 164 166 167 151 154 163 168 185 195 196 157 159 158 164 177 184 157 131 98 108 186 223 237 226 228 298 202 209 220 173 169 198 206 180 177 134 98 130 336 315 121 120 161 169 209 229 211 207 206 201 233 249 207 195 222 214 211 224 231 235 233 229 230 231 233 237
256 245 231 224 218 206 199 203 194 185 178 169 158 141 142 189 209 214 193 90 135 192 162 165 163 153 162 167 169 179 185 189 173 171 170 168 181 189 184 183 167 162 192 201 213 221 218 216 218 307 310 159 172 193 296 32 168 177 157 157 199 214 192 202 192 203 228 232 206 197 202 208 232 250 235 211 224 218 216 227 228 232 236 234 233 235 234 236
253 241 228 221 214 205 206 202 188 183 170 159 151 139 182 212 210 203 191 147 221 205 161 163 166 162 162 163 175 181 177 182 177 174 178 175 182 194 194 192 179 177 190 189 194 206 221 241 208 221 300 206 186 184 193 202 187 195 185 176 199 200 207 216 201 215 232 232 223 195 196 213 232 244 238 231 233 229 223 228 225 228 235 237 236 237 238 238
247 235 225 218 212 207 204 195 189 182 164 153 154 166 191 224 204 188 202 210 249 209 160 159 164 165 168 168 172 171 168 202 183 173 180 176 178 194 196 197 192 184 153 175 192 191 201 225 199 192 198 187 195 202 197 178 183 204 195 192 209 204 225 230 201 220 236 241 243 190 188 204 200 227 232 221 225 231 233 232 228 235 238 239 243 242 244 244
240 228 221 211 208 207 198 191 189 179 163 155 177 185 195 217 193 189 201 185 223 209 158 159 160 160 177 177 169 173 177 189 177 173 181 181 185 190 188 194 192 182 151 173 196 191 205 237 217 201 189 164 190 213 184 140 176 213 178 204 221 211 225 247 226 219 226 242 242 195 221 224 219 267 269 198 204 218 232 237 234 242 246 243 249 249 246 247
239 220 212 202 200 200 193 188 182 174 165 161 191 199 204 210 195 191 186 158 172 177 156 165 166 160 173 171 170 183 182 147 165 174 183 186 193 192 188 193 189 186 180 177 182 176 201 235 216 185 191 185 191 193 173 167 178 169 175 207 215 163 197 234 258 254 154 228 222 194 237 258 269 277 264 217 215 205 221 233 227 236 245 243 246 247 245 247
212 195 198 197 196 196 192 184 175 170 167 172 200 207 204 213 206 170 172 157 157 164 162 170 170 164 168 156 165 179 170 133 165 173 177 183 196 195 191 198 190 195 201 186 189 180 188 225 211 152 196 213 188 155 168 186 162 133 196 203 161 60 88 199 244 239 205 235 229 199 224 225 211 247 240 227 232 206 216 231 226 232 239 239 245 249 250 249
170 167 182 193 192 191 190 182 171 168 168 184 207 213 194 210 208 168 197 172 157 165 174 179 173 171 169 158 165 173 170 170 172 174 179 178 196 190 188 198 194 201 206 176 167 210 170 224 275 184 190 190 103 129 178 215 194 162 197 189 126 224 228 178 202 225 220 234 238 212 224 219 198 216 236 232 225 204 214 228 230 234 235 238 250 254 255 255
152 152 188 188 186 187 184 177 167 166 184 189 208 213 189 207 217 196 213 185 169 174 179 188 185 172 174 170 165 167 174 180 171 173 184 179 199 191 186 192 193 201 204 168 161 200 154 188 270 245 187 144 120 166 193 215 232 73 199 237 74 208 224 206 197 218 220 231 239 223 224 225 195 195 218 233 225 201 207 224 235 240 235 231 240 245 249 253
138 133 201 183 185 185 176 168 158 175 197 196 210 205 164 197 218 218 229 199 178 179 180 191 187 172 177 178 170 169 177 180 173 178 190 182 190 200 189 191 189 193 194 181 185 188 109 186 237 304 160 149 166 202 199 201 196 149 194 212 198 193 247 274 228 220 206 219 236 230 224 223 186 180 209 229 232 199 188 212 234 243 241 234 235 244 253 258
132 112 195 180 179 174 163 157 164 189 200 212 215 186 154 206 200 203 229 238 196 171 178 196 193 177 173 173 175 176 174 176 177 182 192 186 194 215 196 190 181 172 174 183 201 189 136 189 193 161 159 176 197 203 198 205 198 188 202 206 206 212 224 279 258 218 184 204 214 223 235 249 235 199 209 232 242 208 189 210 233 250 257 259 260 256 259 263
151 149 186 174 169 161 153 163 188 170 206 213 196 139 154 181 198 194 206 225 242 240 166 189 192 180 179 175 174 176 172 173 178 182 196 198 200 210 193 171 156 154 159 180 203 189 129 122 136 171 200 210 212 164 84 103 178 196 217 206 207 212 207 228 238 222 221 217 191 197 240 263 260 232 221 242 247 217 209 214 220 249 264 271 271 261 257 261
178 197 172 169 164 155 153 189 179 169 237 207 148 126 161 169 192 197 195 188 203 217 178 171 165 179 194 178 166 172 173 173 184 188 196 204 206 205 171 150 146 153 161 175 191 189 151 121 153 194 261 284 273 344 23 31 69 184 228 210 207 209 207 220 232 236 246 233 212 238 239 222 248 249 243 258 249 216 220 216 195 245 278 278 272 267 258 259
193 178 160 170 166 159 161 194 184 185 207 176 133 144 155 195 192 193 198 192 197 198 183 187 185 179 177 151 162 177 174 169 194 198 193 203 211 185 164 161 154 160 177 181 177 181 187 177 178 183 149 315 287 311 320 325 139 197 217 214 213 211 211 223 234 238 247 240 234 253 250 215 248 278 277 282 272 247 228 223 204 233 268 277 281 284 277 273
170 106 8 171 167 166 183 200 187 184 169 166 168 161 167 215 205 197 195 188 213 224 193 187 171 155 143 139 144 176 182 166 178 194 190 188 198 184 175 173 169 175 191 181 164 166 182 187 186 189 192 200 208 216 223 220 198 196 217 219 219 213 208 214 229 230 236 238 233 241 247 244 290 290 274 272 274 271 264 258 253 242 246 259 272 284 289 294
161 146 46 154 165 183 248 356 149 171 168 170 174 175 181 187 198 201 180 177 219 232 246 213 151 132 132 150 138 168 199 207 73 182 188 178 179 186 182 179 182 186 177 160 157 152 163 197 198 203 210 209 209 217 214 126 136 185 209 214 220 221 211 211 229 230 230 243 241 240 242 245 263 268 263 262 267 276 281 271 261 253 251 260 266 276 289 294
175 174 165 155 127 184 241 340 152 165 171 176 174 176 181 179 174 173 172 209 229 197 277 317 159 154 159 164 157 175 195 206 5 178 184 182 172 157 168 180 193 189 167 160 167 145 125 207 206 208 220 223 219 221 120 88 146 193 205 212 217 220 215 217 229 232 229 238 245 244 228 224 237 249 259 265 267 274 279 269 257 250 256 273 282 289 295 296
179 233 188 192 37 186 200 204 187 173 164 174 177 174 179 173 167 174 180 196 254 208 212 280 188 179 171 167 170 174 181 193 221 186 179 177 165 142 151 179 207 187 162 161 174 140 147 213 208 204 225 235 234 230 157 115 157 166 178 202 209 210 215 222 231 238 237 237 251 265 245 227 235 248 260 265 262 261 268 268 264 265 271 282 288 293 296 295
179 268 244 338 5 211 195 156 167 171 169 175 175 178 183 177 177 187 169 145 196 243 216 191 189 186 175 170 170 166 175 188 203 199 181 166 166 156 147 160 232 182 152 153 175 145 169 205 187 182 221 238 238 237 225 202 209 185 188 206 208 208 214 220 228 234 237 240 250 264 264 258 258 269 271 268 254 241 262 272 275 276 278 281 283 282 280 280
231 280 274 67 21 246 143 118 148 167 178 187 192 187 187 184 184 190 159 161 183 206 206 197 189 182 176 176 178 186 192 192 189 184 166 151 168 173 163 173 161 119 127 150 173 235 197 194 133 135 209 243 234 226 220 198 209 229 226 220 222 227 228 225 223 224 230 238 239 242 254 262 258 255 266 271 268 263 268 269 269 269 265 265 270 273 273 273
285 276 282 119 47 227 165 140 152 168 186 199 201 184 184 193 189 182 186 196 195 192 193 189 179 170 173 186 193 198 199 193 182 179 170 163 170 174 171 176 156 142 141 154 164 171 177 190 94 113 190 240 217 196 191 132 128 235 240 223 217 220 225 227 221 211 210 220 232 235 241 251 248 240 254 265 267 263 262 263 264 264 257 252 255 260 263 267
310 278 286 174 214 226 194 151 157 183 199 201 199 189 189 196 187 176 184 204 205 196 176 160 162 163 174 193 203 201 188 176 169 172 171 151 141 145 153 156 154 152 152 147 148 152 153 156 124 142 190 249 221 153 147 103 82 260 243 220 215 218 225 234 240 228 211 202 216 232 231 237 243 238 242 254 257 256 256 256 255 260 258 250 245 248 252 256
Height
794 795 795 795 796 797 797 798 799 799 800 801 802 803 804 806 807 809 810 811 812 813 814 815 816 816 816 816 817 817 817 816 815 815 811 807 808 811 812 812 813 814 815 815 815 815 814 814 813 814 815 816 817 817 817 816 817 822 830 838 842 841 837 828 824 823 822 820 816 813 811 813 814 811 808 808 811 813 815 815 816 815 814 814 813 812 814 818
791 792 792 793 794 794 795 796 796 797 798 798 799 800 802 803 805 807 808 809 810 811 812 813 814 815 815 816 816 816 816 815 814 810 804 805 808 809 810 811 812 813 814 814 814 815 815 814 813 814 815 817 818 817 818 817 817 824 832 838 837 832 828 821 818 819 818 819 816 813 813 813 812 810 808 811 816 815 817 819 819 818 817 816 814 814 815 818
789 789 789 790 791 792 793 793 794 795 795 796 797 798 799 801 802 804 806 807 808 810 811 811 813 814 815 815 815 816 815 815 812 803 798 802 805 806 807 809 810 811 813 813 813 814 815 814 812 813 816 819 818 817 819 818 818 822 829 837 831 823 823 818 816 817 817 816 815 813 812 812 810 808 808 811 816 817 817 818 819 819 819 818 817 816 816 818
786 786 786 787 788 789 790 791 791 792 793 794 795 796 797 798 800 801 803 805 806 808 809 810 811 812 814 814 815 815 814 816 807 796 794 796 798 801 803 806 808 810 811 812 813 814 814 813 813 813 817 820 818 817 819 818 819 821 825 830 823 819 822 817 814 815 814 814 814 814 812 813 810 809 810 810 817 819 814 811 810 811 815 817 817 816 817 818
783 783 784 784 785 786 787 788 789 789 791 791 792 793 794 796 797 799 801 802 804 806 808 809 810 811 813 813 815 814 816 816 800 791 793 791 791 795 797 802 806 808 810 812 813 813 814 813 813 814 817 821 821 820 820 815 815 820 822 821 817 818 821 815 813 814 814 814 814 814 814 812 810 810 810 809 814 814 807 804 803 804 808 812 814 815 817 818
780 781 781 781 782 783 784 785 787 787 788 789 790 791 792 793 794 796 798 800 802 804 806 807 808 810 811 812 814 813 815 809 794 791 791 787 789 791 794 799 803 806 808 810 811 812 813 813 814 816 818 819 821 821 818 813 813 820 821 817 815 817 818 814 813 814 815 816 816 814 811 810 812 812 810 808 807 803 798 797 798 801 804 806 810 814 815 816
777 777 778 778 779 780 781 782 784 785 786 787 788 788 790 791 792 794 796 798 800 801 804 805 807 808 810 812 812 812 812 801 790 791 789 787 790 791 794 798 801 805 805 807 809 810 812 813 815 815 817 819 819 818 816 813 813 819 821 816 814 814 816 814 814 815 815 816 815 812 811 810 813 812 810 808 803 798 797 796 797 800 803 806 809 811 812 813
773 774 775 775 776 777 778 779 780 782 783 784 785 786 787 788 790 791 793 796 797 800 801 803 805 806 809 810 810 812 807 796 789 790 789 789 792 793 796 798 801 802 803 804 805 808 810 812 813 813 817 816 814 815 814 816 817 818 819 816 813 813 813 813 814 814 814 815 813 811 812 810 809 810 809 807 802 798 798 798 798 801 804 807 808 809 810 811
770 771 771 772 773 774 775 776 777 779 780 781 783 784 785 786 788 789 790 792 794 797 799 801 803 804 807 807 809 810 797 789 790 789 789 791 792 795 796 797 799 800 801 802 803 806 808 810 811 810 813 813 812 812 811 817 819 815 815 814 812 811 811 812 813 813 813 813 812 813 813 809 807 809 809 804 799 798 798 799 800 802 805 806 806 807 808 809
767 767 768 769 770 771 772 773 774 776 777 779 780 781 782 784 785 787 787 790 792 794 796 799 801 803 805 804 808 806 789 788 791 788 790 792 793 795 796 796 798 799 800 801 802 804 805 807 808 808 811 811 812 812 811 814 812 809 811 812 812 811 810 811 811 811 812 811 810 814 813 807 806 810 810 802 797 797 798 800 801 802 804 805 805 805 805 806
764 764 765 766 767 768 769 771 772 773 774 775 777 778 780 781 783 784 785 787 789 791 794 796 799 801 801 801 803 798 787 788 790 788 790 790 792 795 795 796 797 798 799 800 801 801 803 805 806 810 815 813 813 814 813 810 808 809 811 814 814 812 811 810 811 810 811 810 807 810 810 806 807 809 806 800 796 796 797 799 801 802 802 803 803 804 805 804
760 761 761 762 764 765 766 768 769 770 771 772 774 775 777 779 780 781 782 785 786 789 791 794 797 798 799 799 794 788 786 788 788 789 789 788 791 793 794 795 795 797 799 799 801 801 803 805 806 812 815 813 815 817 812 807 809 810 811 816 817 815 813 809 809 809 809 810 804 808 814 810 809 807 800 797 795 795 797 798 799 800 801 801 802 802 802 801
757 757 758 759 760 761 763 764 766 767 768 770 771 773 774 776 777 779 780 782 784 787 789 791 794 795 798 794 784 784 787 787 787 788 788 789 790 790 792 794 795 796 798 799 801 802 804 805 806 810 812 813 815 813 808 806 810 813 815 818 819 822 817 806 806 807 808 808 801 809 821 814 806 803 796 795 795 794 797 797 796 798 798 800 800 800 800 799
754 754 755 755 756 758 759 761 763 764 766 767 768 770 771 773 775 777 778 780 781 784 787 790 792 793 794 787 780 783 785 785 787 786 787 788 789 790 791 793 794 796 797 799 801 803 805 805 807 811 812 813 812 809 809 812 813 816 821 821 823 827 816 803 803 806 808 806 799 809 823 815 805 801 795 794 794 795 797 796 795 795 795 797 797 798 798 797
750 751 752 752 753 755 756 758 759 761 763 765 766 768 769 770 772 774 776 778 779 782 785 788 790 791 792 785 779 781 783 785 784 783 786 787 789 789 790 792 793 794 796 798 800 802 804 805 808 812 813 813 814 814 816 819 817 817 824 827 826 825 815 805 801 801 805 804 799 809 820 814 804 799 793 792 793 794 796 795 793 793 792 793 794 796 796 795
746 748 749 749 750 751 753 754 756 758 760 763 764 765 767 768 770 772 774 776 778 780 783 785 786 788 790 783 777 778 780 780 779 782 785 785 788 790 790 791 792 794 796 797 799 801 803 806 809 810 812 814 817 818 820 824 824 820 820 823 823 822 819 812 803 798 800 801 801 806 813 810 801 795 791 790 792 793 795 793 792 792 791 791 792 792 793 793
742 744 745 746 747 748 749 751 753 755 757 760 762 763 765 766 768 769 771 774 776 778 780 780 781 787 786 777 774 775 773 773 775 780 782 783 787 789 789 790 791 793 795 797 799 800 803 806 808 810 812 815 815 818 823 826 824 821 819 818 815 816 819 816 806 800 799 802 804 804 807 806 798 793 791 790 791 793 793 793 791 790 790 790 790 790 790 790
739 741 742 743 743 744 746 748 750 752 754 757 759 761 763 765 767 768 769 773 775 776 778 777 780 786 781 770 770 770 768 771 774 777 780 782 785 787 789 790 790 793 796 798 799 800 803 805 808 810 812 814 813 814 815 810 806 810 817 818 815 814 816 814 806 800 800 804 806 806 806 804 799 793 789 788 790 792 791 789 789 788 788 788 788 788 787 787
737 738 739 740 740 741 742 744 746 749 752 755 757 759 763 765 766 766 767 770 769 766 766 768 769 771 767 761 763 766 767 769 772 775 777 780 783 786 788 789 790 793 797 799 799 799 800 804 808 807 807 808 806 803 798 791 792 800 808 811 812 814 815 811 804 797 798 804 807 806 802 799 799 795 790 787 788 790 789 788 787 787 787 786 786 786 785 785
733 734 736 736 737 738 739 741 743 746 749 752 754 758 760 762 761 760 761 762 759 753 753 756 756 756 758 757 758 763 767 769 771 773 775 777 781 785 788 790 791 793 795 797 797 796 797 800 802 798 797 797 796 795 791 790 794 797 802 807 810 813 812 808 804 798 796 803 805 801 800 797 796 795 789 786 786 787 788 787 786 785 785 785 784 783 782 781
730 731 732 733 734 735 736 738 740 742 746 749 752 754 754 753 753 752 753 756 754 751 752 752 752 755 756 756 757 760 765 769 770 770 773 775 778 784 788 789 790 791 791 793 794 795 795 796 795 791 789 789 791 794 795 797 797 797 801 807 809 810 808 803 802 798 796 802 801 796 799 796 793 793 789 786 786 785 784 784 783 781 781 782 782 781 780 778
727 728 729 730 730 731 733 735 737 739 743 746 747 748 747 747 748 747 750 754 752 751 756 755 754 757 754 755 758 758 762 768 771 770 771 774 776 780 785 787 788 787 789 792 795 796 794 792 788 785 784 787 791 794 797 800 799 800 803 807 807 805 806 804 801 797 798 804 800 797 800 793 788 789 787 784 783 781 779 779 778 777 777 778 779 778 777 776
724 724 725 726 727 728 730 731 734 737 740 741 742 742 742 745 748 748 750 753 749 749 754 756 755 755 754 755 757 758 761 765 769 769 768 772 775 777 781 785 786 786 788 791 793 792 789 785 781 781 784 789 792 793 797 801 802 802 804 806 804 800 804 807 803 799 799 801 798 798 800 793 788 788 785 783 780 777 777 775 774 774 773 773 773 773 773 773
720 721 722 722 724 726 727 729 733 735 735 736 738 738 740 745 748 749 753 755 751 747 748 750 752 752 752 754 755 758 761 761 763 765 764 767 772 775 778 780 783 786 787 787 789 788 783 777 775 780 785 788 792 794 797 802 803 801 800 801 799 797 801 802 799 799 800 800 796 800 805 796 788 789 786 782 779 777 776 775 774 772 770 770 769 769 769 769
716 718 718 719 721 722 725 728 729 730 732 733 733 736 740 746 748 750 756 758 752 749 748 747 749 749 749 754 756 756 760 759 758 760 760 761 764 770 775 777 779 783 783 783 787 788 783 775 775 781 785 787 791 793 794 798 800 798 795 794 794 796 798 798 797 799 807 808 797 801 813 798 781 784 784 779 779 776 772 772 772 770 769 769 768 767 767 766
713 714 714 716 717 720 724 725 722 726 731 729 728 734 741 744 748 750 757 760 750 745 747 746 746 743 743 751 755 757 761 758 755 756 758 761 760 763 772 776 776 777 776 779 785 785 780 775 776 780 783 788 791 791 789 792 799 797 787 786 791 795 798 798 797 800 809 809 794 796 811 801 783 781 780 777 778 773 769 768 766 766 766 765 765 764 763 763
709 709 710 712 714 718 721 719 719 724 726 724 726 734 739 742 748 750 757 759 741 732 739 742 741 736 734 743 749 756 761 754 753 757 756 759 760 760 768 774 774 774 772 778 784 778 773 776 778 778 782 787 789 789 785 787 795 791 779 781 790 795 798 797 798 801 802 802 797 795 803 805 794 780 774 776 779 776 771 767 762 761 762 761 760 759 758 758
705 706 707 708 710 713 715 715 718 719 719 720 725 732 737 740 746 750 757 750 725 719 731 734 733 731 733 742 747 751 750 745 752 757 753 757 761 761 767 769 769 770 769 776 780 772 769 774 776 777 782 784 783 782 781 784 789 783 778 783 787 789 793 795 801 805 804 806 807 800 799 806 794 773 771 775 776 777 773 767 761 758 759 758 757 756 754 752
701 702 703 705 708 710 712 714 714 714 716 720 725 730 734 741 747 751 753 737 715 715 723 724 728 732 736 744 748 748 746 744 749 752 752 758 760 760 764 765 766 770 770 773 775 771 770 773 772 775 781 781 778 776 778 784 788 783 782 786 786 787 791 797 805 810 811 810 807 800 798 803 790 769 773 777 771 770 767 762 758 754 755 755 752 752 750 749
697 698 700 703 706 707 710 712 711 712 715 720 724 727 733 740 744 745 738 722 713 717 717 718 722 727 734 742 747 748 747 747 748 749 754 758 758 760 762 762 766 771 773 774 774 771 771 771 769 772 774 773 773 775 777 780 785 787 789 791 791 794 797 800 805 810 813 808 800 794 791 799 791 767 766 770 760 757 758 756 754 750 750 750 748 748 747 746
694 695 697 700 701 704 706 707 708 712 714 717 721 727 734 738 737 733 722 712 714 716 715 717 719 722 730 735 741 746 748 749 748 750 754 757 761 763 763 765 769 775 779 779 775 773 774 774 771 769 769 768 771 776 779 779 782 787 794 796 795 799 802 804 808 812 810 799 789 787 787 795 791 762 752 756 748 747 751 750 749 747 746 745 744 744 742 741
690 691 693 696 698 700 701 700 705 710 713 714 719 726 733 733 728 720 713 714 716 712 711 714 715 719 725 729 734 738 742 747 746 747 750 753 759 759 757 760 763 771 780 779 775 774 775 774 772 771 770 768 771 778 784 785 786 790 794 799 801 802 801 800 803 803 799 789 780 779 784 789 780 756 748 749 743 743 744 742 742 742 740 740 740 738 737 736
686 687 690 692 694 696 697 699 705 709 711 715 719 724 728 725 714 705 709 718 713 703 704 709 711 714 717 724 731 732 738 744 742 743 746 749 754 756 754 754 753 759 767 771 775 779 779 775 774 775 772 767 767 773 781 784 785 786 786 791 795 795 795 793 792 792 790 783 774 774 782 783 771 752 743 741 740 740 740 738 738 737 737 736 734 733 733 732
682 684 686 689 690 692 695 699 703 706 710 716 719 721 723 717 704 697 706 715 710 701 700 703 711 717 715 716 721 726 736 743 739 740 744 748 753 756 756 755 752 753 757 767 774 774 776 773 768 767 764 761 762 761 763 770 777 778 773 779 783 781 784 785 783 785 785 780 776 778 782 776 762 745 732 730 734 735 734 733 735 735 733 732 730 730 730 728
678 681 684 686 688 690 694 697 700 703 709 714 715 715 713 707 701 698 699 706 711 707 701 702 709 719 721 718 718 719 724 734 738 739 741 745 747 748 750 751 750 749 753 765 767 764 769 763 751 751 751 754 759 757 757 765 775 777 773 777 778 770 769 772 772 773 775 778 778 777 772 760 747 736 727 727 729 730 730 730 732 731 727 728 729 727 726 725
676 679 682 683 685 688 692 695 698 702 706 711 712 708 702 697 698 698 693 697 705 704 704 707 708 713 720 721 723 722 720 727 736 737 739 742 742 742 743 743 744 744 744 750 754 759 765 757 746 750 753 752 753 755 758 761 767 774 775 774 772 766 764 768 771 770 773 777 769 762 761 756 750 740 729 728 729 729 729 728 729 728 725 727 726 722 722 721
675 678 680 681 683 686 690 694 697 701 705 709 709 701 695 693 694 695 691 691 696 698 701 706 705 706 714 719 723 724 723 727 734 736 738 741 740 738 739 739 739 739 736 737 742 747 753 751 748 752 754 752 751 754 759 757 758 770 774 765 766 774 774 774 776 773 777 778 762 751 754 756 758 749 730 726 732 732 727 724 726 727 726 725 722 719 719 719
673 677 679 679 682 685 688 692 696 699 704 706 703 698 695 694 694 694 691 689 691 695 699 701 699 699 706 714 718 720 720 725 732 734 736 739 736 731 735 737 735 734 733 735 739 741 744 749 750 748 749 752 753 757 763 760 756 762 766 762 767 774 773 774 777 773 774 775 761 751 749 748 750 744 728 724 729 729 725 722 722 723 723 723 721 719 718 715
673 676 678 677 680 684 687 691 695 699 702 701 698 696 695 695 696 694 690 688 688 692 696 697 694 696 700 703 707 713 715 718 726 730 730 733 731 724 726 730 731 733 733 734 738 738 742 747 747 746 748 751 756 759 761 761 761 763 764 766 770 769 764 764 765 762 764 767 760 753 750 743 737 731 724 719 718 721 724 722 720 720 720 720 718 716 714 712
672 676 677 675 678 682 686 692 697 699 698 694 691 692 693 694 696 693 689 687 686 688 692 691 690 693 696 697 700 705 708 711 719 723 722 723 724 722 721 722 725 729 731 735 738 738 742 746 746 752 754 752 754 754 749 749 755 763 763 763 768 769 767 766 761 756 759 760 755 752 747 737 725 719 716 710 708 714 718 718 717 715 714 714 713 712 711 710
672 675 674 672 676 681 686 692 696 696 695 690 689 692 694 693 693 691 690 690 687 686 687 686 685 687 689 693 698 700 704 709 715 719 719 718 719 717 713 711 716 724 732 740 740 735 739 743 745 754 757 751 747 743 740 740 744 752 755 755 758 762 765 768 763 758 760 759 753 751 748 735 719 713 710 704 704 709 711 711 712 711 709 710 711 711 710 709
672 672 671 671 674 679 685 690 691 692 692 688 687 689 691 692 692 690 688 691 689 686 685 684 684 686 685 687 691 695 699 705 710 713 713 711 709 707 705 707 712 720 728 737 737 731 735 742 746 752 752 746 743 744 746 745 742 745 749 749 752 756 759 763 760 754 754 755 751 754 755 740 720 712 710 706 706 708 709 710 712 711 710 710 710 709 708 706
671 670 669 670 672 677 684 688 689 691 690 686 685 686 686 689 692 691 688 690 689 685 684 684 683 685 685 685 688 693 696 700 704 705 704 705 705 704 706 709 712 718 724 731 735 732 734 740 744 747 747 742 742 747 750 750 748 748 747 746 748 749 750 750 747 745 745 744 745 751 753 739 718 709 708 706 707 709 709 710 713 714 711 708 707 705 704 703
670 670 670 670 671 675 680 681 682 687 689 687 686 687 688 688 689 689 689 688 688 684 682 683 682 681 682 684 688 691 693 697 702 701 701 704 705 705 707 707 709 714 717 719 721 724 731 736 739 747 754 752 751 753 753 751 752 750 745 742 741 742 744 745 745 747 745 739 740 745 744 730 715 709 707 705 705 707 709 711 712 712 709 705 703 700 699 699
670 670 672 673 672 673 675 674 673 679 685 687 685 685 687 687 686 686 685 685 687 684 680 679 678 678 681 684 689 693 692 692 697 699 701 704 704 704 705 706 706 706 707 709 710 716 727 730 732 741 751 752 749 745 739 737 742 746 743 739 737 738 741 745 747 750 746 738 737 739 736 727 717 712 709 707 705 706 708 710 709 707 706 705 703 701 698 698
670 670 673 675 675 675 675 672 671 674 680 683 684 682 682 683 684 684 683 684 687 686 681 676 675 678 683 685 691 697 696 694 698 698 698 702 702 700 702 704 703 702 705 708 710 716 724 725 725 729 731 729 726 722 720 722 730 738 738 735 737 737 739 743 746 746 743 739 736 731 730 730 725 716 710 708 706 706 706 708 707 704 703 703 704 703 700 699
668 668 670 672 674 675 676 675 672 672 674 677 679 680 679 678 681 685 686 685 684 684 682 676 672 675 681 684 690 695 695 696 699 696 696 700 698 696 701 704 703 702 704 708 709 714 722 724 722 722 720 716 715 718 721 723 725 729 731 732 735 736 738 744 745 738 735 739 735 725 725 730 727 718 711 708 707 706 704 703 703 703 703 703 703 702 700 697
667 666 668 668 668 668 669 670 670 670 671 672 675 678 677 677 679 681 684 686 687 684 680 676 672 671 672 675 681 690 695 699 700 695 694 697 696 696 702 706 706 704 705 709 710 711 717 720 718 720 721 718 717 721 725 725 725 727 729 730 732 735 738 741 741 736 735 739 734 727 727 727 722 717 711 705 705 704 701 700 701 703 704 703 702 701 699 696
669 668 668 668 666 664 663 664 667 670 670 670 673 676 675 675 676 675 676 684 688 684 678 674 671 669 669 671 675 685 691 692 692 692 691 693 694 695 701 706 708 708 706 708 713 714 714 715 718 722 723 721 721 724 726 728 730 730 730 729 729 733 735 737 738 736 736 736 734 732 732 727 723 721 711 702 701 702 700 701 702 702 702 701 700 699 697 695
671 669 668 668 667 666 664 664 667 671 671 670 671 671 671 672 673 672 674 678 682 682 677 673 669 667 669 671 672 677 679 674 677 683 686 689 693 692 695 699 704 709 709 708 715 718 714 715 719 721 723 724 722 723 726 729 731 731 732 732 730 731 734 735 736 735 734 735 733 732 735 730 723 720 711 701 701 702 700 699 698 697 698 699 699 698 695 692
673 670 669 669 667 665 664 664 665 669 671 670 668 667 667 668 667 669 671 671 671 673 673 671 669 669 671 671 670 670 671 670 672 676 677 678 682 684 685 689 696 703 708 710 713 715 715 717 718 719 723 723 718 721 729 731 733 736 735 733 730 727 726 725 725 726 728 730 730 733 735 727 716 713 710 702 698 698 695 694 693 692 692 694 694 693 691 687
673 670 669 669 666 665 665 663 664 667 665 662 661 661 661 662 662 665 670 669 668 669 669 669 670 671 673 672 668 666 669 671 672 675 676 673 674 678 679 683 689 694 701 710 714 714 713 715 718 720 721 721 720 722 725 728 735 735 724 718 721 720 719 719 718 718 719 720 723 725 721 713 705 706 707 698 691 691 689 688 689 687 686 688 688 686 684 681